Weather History for KSBS - June, 2012

Change the Weather History Date:

Sunday, June 3, 2012

  Actual Average Record
Temperature  
Mean Temperature 64 °F -  
Max Temperature 85 °F 72 °F 85 °F (2012)
Min Temperature 42 °F 33 °F 23 °F (1929)
Degree Days  
Heating Degree Days 2    
Growing Degree Days 14 (Base 50)    
Moisture  
Dew Point 32 °F    
Average Humidity 41    
Maximum Humidity 86    
Minimum Humidity 7    
Precipitation  
Precipitation 0.00 in - - ()
Sea Level Pressure  
Sea Level Pressure 30.11 in    
Wind  
Wind Speed 3 mph (SW)    
Max Wind Speed 16 mph    
Max Gust Speed 25 mph    
Visibility 10 miles    
Events      
Averages and records for this station are not official NWS values.
T = Trace of Precipitation, MM = Missing Value Source: NWS Daily Summary

Daily Weather History Graph

Daily Weather History Graph

Search for Another Location

Airport or City:

Trip Planner

Search our weather history database for the weather conditions in past years. The results will help you decide how hot, cold, wet, or windy it might be!

Date:

Astronomy

Jun. 03, 2012 Rise Set
Actual Time 5:38 AM MDT 8:33 PM MDT
Civil Twilight 5:05 AM MDT 9:06 PM MDT
Nautical Twilight 4:24 AM MDT 9:47 PM MDT
Astronomical Twilight 3:36 AM MDT 10:35 PM MDT
Moon 8:02 PM MDT (6/3) 4:49 AM MDT (6/3)
Length of Visible Light 16h 00m
Length of Day
14h 55m
Waxing Gibbous, 99% of the Moon is Illuminated
Jun 3
Waxing Gibbous
Jun 4
Full
Jun 11
Last Quarter
Jun 19
New
Jun 26
First Quarter

Hourly Weather History & Observations

Time (MDT) Temp. Dew Point Humidity Pressure Visibility Wind Dir Wind Speed Gust Speed Precip Events Conditions
12:10 AM 49.5 °F 41.4 °F 74% 30.10 in 10.0 mi Calm Calm - N/A   Clear
12:30 AM 49.1 °F 40.6 °F 73% 30.09 in 10.0 mi Calm Calm - N/A   Clear
12:50 AM 48.0 °F 39.9 °F 74% 30.10 in 10.0 mi Calm Calm - N/A   Clear
1:10 AM 48.4 °F 39.6 °F 72% 30.10 in 10.0 mi WNW 5.8 mph - N/A   Clear
1:30 AM 47.3 °F 39.6 °F 74% 30.10 in 10.0 mi NW 3.5 mph - N/A   Clear
1:50 AM 47.3 °F 39.2 °F 73% 30.10 in 10.0 mi NNW 3.5 mph - N/A   Clear
2:10 AM 46.2 °F 39.2 °F 76% 30.10 in 10.0 mi Calm Calm - N/A   Clear
2:30 AM 46.9 °F 38.8 °F 73% 30.10 in 10.0 mi Calm Calm - N/A   Clear
2:50 AM 46.4 °F 38.7 °F 74% 30.10 in 10.0 mi Calm Calm - N/A   Clear
3:09 AM 46.4 °F 38.7 °F 74% 30.10 in 10.0 mi Calm Calm - N/A   Clear
3:29 AM 45.9 °F 38.1 °F 74% 30.10 in 10.0 mi Calm Calm - N/A   Clear
4:09 AM 43.9 °F 39.9 °F 86% 30.10 in 10.0 mi Calm Calm - N/A   Clear
4:29 AM 44.1 °F 38.1 °F 80% 30.11 in 10.0 mi Calm Calm - N/A   Clear
4:49 AM 43.3 °F 38.7 °F 84% 30.11 in 10.0 mi Calm Calm - N/A   Clear
5:09 AM 43.9 °F 38.1 °F 80% 30.11 in 10.0 mi Calm Calm - N/A   Clear
5:29 AM 42.3 °F 37.2 °F 82% 30.11 in 10.0 mi Calm Calm - N/A   Clear
5:49 AM 43.2 °F 37.4 °F 80% 30.11 in 10.0 mi Calm Calm - N/A   Clear
6:29 AM 44.1 °F 37.2 °F 77% 30.12 in 10.0 mi Calm Calm - N/A   Clear
7:09 AM 46.4 °F 39.0 °F 75% 30.12 in 10.0 mi Calm Calm - N/A   Clear
7:29 AM 49.3 °F 40.1 °F 71% 30.12 in 10.0 mi Calm Calm - N/A   Clear
8:09 AM 52.7 °F 40.5 °F 63% 30.12 in 10.0 mi Calm Calm - N/A   Clear
8:29 AM 55.2 °F 40.1 °F 57% 30.12 in 10.0 mi Calm Calm - N/A   Clear
8:49 AM 56.3 °F 41.9 °F 59% 30.12 in 10.0 mi Calm Calm - N/A   Clear
9:09 AM 58.1 °F 42.1 °F 55% 30.12 in 10.0 mi Calm Calm - N/A   Clear
9:29 AM 60.8 °F 42.4 °F 51% 30.13 in 10.0 mi Calm Calm - N/A   Clear
9:49 AM 63.3 °F 38.8 °F 40% 30.12 in 10.0 mi Calm Calm - N/A   Clear
10:09 AM 65.3 °F 37.8 °F 36% 30.12 in 10.0 mi NNE 3.5 mph - N/A   Clear
10:29 AM 68.0 °F 36.5 °F 31% 30.12 in 10.0 mi Calm Calm - N/A   Clear
10:49 AM 71.1 °F 35.2 °F 27% 30.13 in 10.0 mi Calm Calm - N/A   Clear
11:09 AM 73.2 °F 38.1 °F 28% 30.13 in 10.0 mi SSE 3.5 mph - N/A   Clear
11:29 AM 74.7 °F 28.8 °F 18% 30.13 in 10.0 mi Calm Calm - N/A   Clear
11:49 AM 76.3 °F 28.8 °F 17% 30.13 in 10.0 mi South 3.5 mph - N/A   Clear
12:09 PM 76.5 °F 29.3 °F 18% 30.13 in 10.0 mi South 6.9 mph - N/A   Clear
12:29 PM 77.7 °F 29.1 °F 17% 30.12 in 10.0 mi Calm Calm - N/A   Clear
12:49 PM 78.8 °F 25.0 °F 14% 30.12 in 10.0 mi SSW 5.8 mph - N/A   Clear
1:09 PM 80.2 °F 21.2 °F 11% 30.12 in 10.0 mi SW 8.1 mph - N/A   Clear
1:29 PM 80.4 °F 22.1 °F 12% 30.12 in 10.0 mi West 9.2 mph 17.3 mph N/A   Clear
1:49 PM 81.3 °F 24.1 °F 12% 30.11 in 10.0 mi WSW 12.7 mph 18.4 mph N/A   Clear
2:09 PM 82.0 °F 22.6 °F 11% 30.10 in 10.0 mi SW 8.1 mph 19.6 mph N/A   Clear
2:29 PM 82.8 °F 18.3 °F 9% 30.10 in 10.0 mi WSW 15.0 mph 24.2 mph N/A   Clear
2:49 PM 82.9 °F 16.0 °F 8% 30.10 in 10.0 mi West 16.1 mph 25.3 mph N/A   Clear
3:09 PM 83.3 °F 15.4 °F 8% 30.10 in 10.0 mi West 15.0 mph 21.9 mph N/A   Clear
3:49 PM 85.1 °F 12.9 °F 7% 30.09 in 10.0 mi West 10.4 mph 20.7 mph N/A   Scattered Clouds
4:09 PM 84.2 °F 12.4 °F 7% 30.08 in 10.0 mi WSW 16.1 mph 20.7 mph N/A   Scattered Clouds
4:29 PM 82.0 °F 11.8 °F 7% 30.09 in 10.0 mi WSW 8.1 mph - N/A   Scattered Clouds
4:49 PM 81.5 °F 16.9 °F 9% 30.09 in 10.0 mi West 10.4 mph - N/A   Clear
5:09 PM 79.2 °F 19.8 °F 11% 30.09 in 10.0 mi West 9.2 mph - N/A   Clear
5:29 PM 78.1 °F 19.9 °F 11% 30.09 in 10.0 mi WNW 9.2 mph - N/A   Clear
5:49 PM 78.3 °F 27.7 °F 16% 30.09 in 10.0 mi NW 5.8 mph - N/A   Clear
6:09 PM 77.7 °F 24.1 °F 14% 30.08 in 10.0 mi NNW 4.6 mph - N/A   Clear
6:29 PM 80.4 °F 22.5 °F 12% 30.08 in 10.0 mi North 3.5 mph - N/A   Clear
6:49 PM 77.9 °F 28.2 °F 16% 30.09 in 10.0 mi SE 3.5 mph - N/A   Clear
7:09 PM 78.8 °F 26.8 °F 15% 30.09 in 10.0 mi ESE 3.5 mph - N/A   Clear
7:29 PM 74.7 °F 34.7 °F 23% 30.10 in 10.0 mi Calm Calm - N/A   Clear
8:09 PM 70.9 °F 35.4 °F 27% 30.10 in 10.0 mi East 3.5 mph - N/A   Clear
8:29 PM 67.6 °F 38.3 °F 34% 30.11 in 10.0 mi SE 4.6 mph - N/A   Clear
8:49 PM 67.3 °F 33.6 °F 29% 30.12 in 10.0 mi ESE 8.1 mph - N/A   Clear
9:09 PM 66.4 °F 29.7 °F 25% 30.12 in 10.0 mi East 8.1 mph - N/A   Clear
9:29 PM 63.5 °F 35.6 °F 35% 30.13 in 10.0 mi ESE 5.8 mph - N/A   Clear
9:49 PM 63.1 °F 33.4 °F 33% 30.15 in 10.0 mi Calm Calm - N/A   Clear
10:09 PM 62.4 °F 31.5 °F 31% 30.16 in 10.0 mi East 3.5 mph - N/A   Clear
10:29 PM 62.6 °F 31.6 °F 31% 30.16 in 10.0 mi East 4.6 mph - N/A   Clear
10:49 PM 61.3 °F 30.9 °F 32% 30.16 in 10.0 mi East 3.5 mph - N/A   Clear
11:09 PM 58.5 °F 32.4 °F 37% 30.16 in 10.0 mi Calm Calm - N/A   Clear
11:29 PM 56.8 °F 34.3 °F 43% 30.16 in 10.0 mi SE 4.6 mph - N/A   Clear
11:49 PM 54.1 °F 35.1 °F 49% 30.17 in 10.0 mi Calm Calm - N/A   Clear